TimeCST,TemperatureF,Dew PointF,Humidity,Sea Level PressureIn,VisibilityMPH,Wind Direction,Wind SpeedMPH,Gust SpeedMPH,PrecipitationIn,Events,Conditions,WindDirDegrees,DateUTC
12:15 AM,21.0,15.6,80,30.01,10.0,SE,4.6,-,N/A,,Overcast,130,2011-12-28 06:15:00
12:35 AM,21.6,15.8,78,30.00,10.0,SE,5.8,-,N/A,,Overcast,130,2011-12-28 06:35:00
12:55 AM,21.4,16.0,80,29.99,10.0,SE,6.9,-,N/A,,Overcast,130,2011-12-28 06:55:00
1:15 AM,22.3,16.5,79,29.98,10.0,SE,8.1,-,N/A,,Overcast,130,2011-12-28 07:15:00
1:35 AM,22.8,17.1,79,29.99,10.0,SE,6.9,-,N/A,,Overcast,140,2011-12-28 07:35:00
1:55 AM,23.0,17.6,80,29.99,10.0,SSE,8.1,-,N/A,,Overcast,150,2011-12-28 07:55:00
2:15 AM,23.2,18.0,80,29.98,10.0,SSE,8.1,-,N/A,,Overcast,150,2011-12-28 08:15:00
2:35 AM,23.5,18.3,80,29.98,10.0,SSE,9.2,-,N/A,,Overcast,160,2011-12-28 08:35:00
2:55 AM,23.5,18.5,81,29.98,10.0,SSE,8.1,-,N/A,,Overcast,160,2011-12-28 08:55:00
3:15 AM,23.4,18.5,82,29.97,10.0,SSE,9.2,-,N/A,,Overcast,150,2011-12-28 09:15:00
3:35 AM,22.1,18.0,84,29.95,10.0,SSE,10.4,-,N/A,,Scattered Clouds,150,2011-12-28 09:35:00
3:55 AM,21.2,17.6,86,29.94,10.0,SSE,9.2,-,N/A,,Clear,150,2011-12-28 09:55:00
4:15 AM,21.2,17.6,86,29.92,10.0,SSE,11.5,-,N/A,,Clear,160,2011-12-28 10:15:00
4:35 AM,20.8,17.4,87,29.92,10.0,SSE,9.2,-,N/A,,Clear,160,2011-12-28 10:35:00
4:55 AM,19.6,16.7,89,29.90,10.0,SSE,9.2,-,N/A,,Clear,160,2011-12-28 10:55:00
5:15 AM,19.9,16.7,87,29.88,10.0,SSE,12.7,-,N/A,,Clear,160,2011-12-28 11:15:00
5:35 AM,19.6,16.3,87,29.89,10.0,South,9.2,-,N/A,,Clear,170,2011-12-28 11:35:00
5:55 AM,19.4,16.2,87,29.90,10.0,South,4.6,-,N/A,,Clear,170,2011-12-28 11:55:00
6:15 AM,18.7,15.4,87,29.89,10.0,South,8.1,-,N/A,,Clear,170,2011-12-28 12:15:00
6:35 AM,17.6,14.7,88,29.88,10.0,South,9.2,-,N/A,,Clear,190,2011-12-28 12:35:00
6:55 AM,17.6,15.1,90,29.87,10.0,SSW,10.4,-,N/A,,Clear,200,2011-12-28 12:55:00
7:15 AM,20.1,17.4,89,29.86,10.0,SSW,13.8,-,N/A,,Clear,210,2011-12-28 13:15:00
7:35 AM,23.2,19.8,87,29.85,10.0,SSW,15.0,-,N/A,,Clear,210,2011-12-28 13:35:00
7:55 AM,23.5,19.8,85,29.85,10.0,SSW,15.0,-,N/A,,Clear,210,2011-12-28 13:55:00
8:15 AM,23.5,19.9,86,29.85,10.0,SW,15.0,-,N/A,,Clear,220,2011-12-28 14:15:00
8:35 AM,24.6,20.7,85,29.86,10.0,SW,16.1,-,N/A,,Mostly Cloudy,230,2011-12-28 14:35:00
8:55 AM,25.7,21.2,83,29.87,10.0,WSW,16.1,-,N/A,,Mostly Cloudy,240,2011-12-28 14:55:00
9:15 AM,25.5,21.4,84,29.86,10.0,SW,16.1,-,N/A,,Clear,230,2011-12-28 15:15:00
9:35 AM,27.7,22.5,81,29.86,10.0,SW,15.0,-,N/A,,Clear,230,2011-12-28 15:35:00
9:55 AM,29.3,23.0,77,29.86,10.0,SW,12.7,-,N/A,,Clear,230,2011-12-28 15:55:00
10:15 AM,30.7,23.0,73,29.86,10.0,SW,15.0,-,N/A,,Clear,230,2011-12-28 16:15:00
10:35 AM,32.0,23.2,70,29.86,10.0,WSW,13.8,-,N/A,,Clear,240,2011-12-28 16:35:00
10:55 AM,33.1,23.4,67,29.85,10.0,WSW,11.5,-,N/A,,Clear,240,2011-12-28 16:55:00
11:15 AM,34.3,23.7,65,29.84,10.0,SW,11.5,-,N/A,,Clear,230,2011-12-28 17:15:00
11:35 AM,36.3,24.1,61,29.83,10.0,WSW,13.8,-,N/A,,Clear,250,2011-12-28 17:35:00
11:55 AM,37.9,24.1,57,29.82,10.0,WSW,15.0,19.6,N/A,,Clear,250,2011-12-28 17:55:00
12:15 PM,39.4,23.2,52,29.81,10.0,West,15.0,-,N/A,,Clear,260,2011-12-28 18:15:00
12:35 PM,40.3,22.8,50,29.81,10.0,WSW,13.8,-,N/A,,Clear,250,2011-12-28 18:35:00
12:55 PM,41.4,22.6,47,29.80,10.0,West,15.0,-,N/A,,Clear,260,2011-12-28 18:55:00
1:15 PM,41.7,22.8,47,29.80,10.0,WSW,12.7,-,N/A,,Clear,250,2011-12-28 19:15:00
1:35 PM,42.4,23.2,47,29.79,10.0,WSW,10.4,-,N/A,,Clear,240,2011-12-28 19:35:00
1:55 PM,43.0,23.5,46,29.78,10.0,WSW,10.4,-,N/A,,Clear,240,2011-12-28 19:55:00
2:15 PM,43.9,23.4,44,29.77,10.0,SW,11.5,16.1,N/A,,Clear,230,2011-12-28 20:15:00
2:35 PM,43.7,23.5,45,29.77,10.0,SW,12.7,-,N/A,,Clear,230,2011-12-28 20:35:00
2:55 PM,43.0,23.0,45,29.77,10.0,WSW,10.4,-,N/A,,Clear,250,2011-12-28 20:55:00
3:15 PM,42.4,23.0,46,29.78,10.0,WSW,9.2,-,N/A,,Clear,240,2011-12-28 21:15:00
3:35 PM,42.3,23.5,48,29.77,10.0,SW,10.4,-,N/A,,Clear,230,2011-12-28 21:35:00
3:55 PM,42.3,23.5,48,29.77,10.0,WSW,11.5,-,N/A,,Clear,240,2011-12-28 21:55:00
4:15 PM,41.7,23.2,48,29.77,10.0,SW,8.1,-,N/A,,Clear,230,2011-12-28 22:15:00
4:35 PM,38.5,22.5,53,29.77,10.0,SW,6.9,-,N/A,,Clear,220,2011-12-28 22:35:00
4:55 PM,36.1,21.9,56,29.78,10.0,SW,6.9,-,N/A,,Clear,230,2011-12-28 22:55:00
5:15 PM,35.6,22.3,58,29.78,10.0,SW,6.9,-,N/A,,Mostly Cloudy,220,2011-12-28 23:15:00
5:35 PM,35.6,22.8,60,29.77,10.0,SW,6.9,-,N/A,,Overcast,220,2011-12-28 23:35:00
5:55 PM,35.8,23.2,60,29.77,10.0,SW,8.1,-,N/A,,Overcast,220,2011-12-28 23:55:00
6:15 PM,36.5,23.9,60,29.77,10.0,SSW,9.2,-,N/A,,Overcast,210,2011-12-29 00:15:00
6:35 PM,36.9,24.3,60,29.77,10.0,SSW,6.9,-,N/A,,Mostly Cloudy,210,2011-12-29 00:35:00
6:55 PM,36.9,24.3,60,29.76,10.0,SSW,4.6,-,N/A,,Overcast,200,2011-12-29 00:55:00
7:15 PM,36.5,23.9,60,29.75,10.0,SSE,3.5,-,N/A,,Overcast,160,2011-12-29 01:15:00
7:35 PM,36.0,23.9,62,29.74,10.0,South,3.5,-,N/A,,Overcast,180,2011-12-29 01:35:00
7:55 PM,35.8,24.4,63,29.72,10.0,SE,3.5,-,N/A,,Overcast,140,2011-12-29 01:55:00
8:15 PM,37.2,25.3,62,29.71,10.0,South,8.1,-,N/A,,Overcast,170,2011-12-29 02:15:00
8:35 PM,38.3,25.7,61,29.71,10.0,South,8.1,-,N/A,,Overcast,190,2011-12-29 02:35:00
8:55 PM,38.3,25.7,61,29.70,10.0,SSW,8.1,-,N/A,,Overcast,200,2011-12-29 02:55:00
9:15 PM,37.8,25.9,62,29.69,10.0,SW,10.4,-,N/A,,Overcast,220,2011-12-29 03:15:00
9:35 PM,39.0,26.2,60,29.67,10.0,SW,11.5,-,N/A,,Mostly Cloudy,220,2011-12-29 03:35:00
9:55 PM,37.8,25.7,62,29.65,10.0,SW,10.4,-,N/A,,Scattered Clouds,220,2011-12-29 03:55:00
10:15 PM,37.2,25.7,63,29.64,10.0,SSW,13.8,-,N/A,,Clear,210,2011-12-29 04:15:00
10:35 PM,36.7,25.7,64,29.64,10.0,SW,12.7,-,N/A,,Clear,220,2011-12-29 04:35:00
10:55 PM,36.7,25.7,64,29.64,10.0,WSW,11.5,-,N/A,,Clear,240,2011-12-29 04:55:00
11:15 PM,37.6,25.7,62,29.63,10.0,SW,15.0,-,N/A,,Clear,230,2011-12-29 05:15:00
11:35 PM,37.6,25.7,62,29.61,10.0,WSW,16.1,-,N/A,,Clear,240,2011-12-29 05:35:00
11:55 PM,37.4,25.7,63,29.60,10.0,WSW,15.0,-,N/A,,Clear,240,2011-12-29 05:55:00